{"data":{"norad_id":58800,"intl_designator":"2024-012P","name":"STARLINK-31191","alt_names":[],"object_type":"PAYLOAD","status":"ACTIVE","operator":null,"country":"US","launch_date":"2024-01-15","launch_site_code":"AFETR","launch_vehicle":null,"mission":null,"orbit_class":"UNKNOWN","rcs_meters":null,"size_class":null,"mass_kg":null,"dimensions":null,"purposes":["comms"],"wikipedia_slug":null,"has_3d_model":false,"image_url":null,"decayed_at":null,"tle_current":{"epoch":"2026-09-20T01:07:33.430080Z","epoch_age_seconds":191761,"freshness":"STALE","line1":"1 58800U 24012P   26263.04691470  .00002508  00000+0  10058-3 0  9991","line2":"2 58800  43.0002 147.3376 0000656 271.3902  88.6874 15.27596695150961","mean_motion":15.27596695,"eccentricity":6.56e-5,"inclination_deg":43.0002,"raan_deg":147.3376,"arg_perigee_deg":271.3902,"mean_anomaly_deg":88.6874,"bstar":0.00010058,"rev_number":15096,"period_min":94.26571847879,"perigee_km":482.54901513042,"apogee_km":483.44919618748,"semimajor_km":6861.1361056589,"source":"CELESTRAK","updated_at":"2026-09-21T09:00:33.980976Z"}}}